Terminal Aerodrome Forecast
Issued by NWS

Home | Current Version | Previous Version | Text Only | Print | Product List | Glossary On
Versions: 1 2 3 4 5 6 7 8 9 10 11 12
000
FTPQ31 PGUM 302300
TAFKWA
TAF
PKWA 302333Z 0100/0124 06011KT P6SM VCSH SCT018 SCT045
     FM011000 12008KT P6SM VCSH SCT018 SCT045=

USA.gov is the U.S. government's official web portal to all federal, state and local government web resources and services.